Weather History for Meridian NAS, MS

Change the Weather History Date:

Monday, November 26, 2012

  Actual Average Record
Temperature  
Mean Temperature 49 °F -  
Max Temperature 63 °F 62 °F 75 °F (2011)
Min Temperature 35 °F 41 °F 28 °F (2014)
Degree Days  
Heating Degree Days 16    
Moisture  
Dew Point 49 °F    
Average Humidity 82    
Maximum Humidity 97    
Minimum Humidity 63    
Precipitation  
Precipitation 0.01 in - - ()
Sea Level Pressure  
Sea Level Pressure 30.15 in    
Wind  
Wind Speed 1 mph (SE)    
Max Wind Speed 6 mph    
Max Gust Speed -    
Visibility 9 miles    
Events Rain    
Averages and records for this station are not official NWS values.
T = Trace of Precipitation, MM = Missing Value Source: NWS Daily Summary

Daily Weather History Graph

Daily Weather History Graph

Search for Another Location

Airport:

Trip Planner

Search our weather history database for the weather conditions in past years. The results will help you decide how hot, cold, wet, or windy it might be!

Date:

Astronomy

Nov. 26, 2012 Rise Set
Actual Time 6:34 AM CST 4:48 PM CST
Civil Twilight 6:07 AM CST 5:15 PM CST
Nautical Twilight 5:37 AM CST 5:45 PM CST
Astronomical Twilight 5:07 AM CST 6:15 PM CST
Moon 3:38 PM CST (11/26) 4:47 AM CST (11/26)
Length of Visible Light 11h 08m
Length of Day
10h 14m
Waxing Gibbous, 97% of the Moon is Illuminated
Nov 26
Waxing Gibbous
Nov 28
Full
Dec 6
Last Quarter
Dec 13
New
Dec 19
First Quarter

Hourly Weather History & Observations

Time (CST) Temp. Windchill Dew Point Humidity Pressure Visibility Wind Dir Wind Speed Gust Speed Precip Events Conditions
12:56 AM 35.1 °F - 30.9 °F 85% 30.15 in 10.0 mi Calm Calm - N/A   Clear
1:56 AM 37.0 °F - 32.0 °F 82% 30.15 in 10.0 mi Calm Calm - N/A   Clear
2:56 AM 35.1 °F - 32.0 °F 89% 30.15 in 10.0 mi Calm Calm - N/A   Clear
3:56 AM 35.1 °F - 30.9 °F 85% 30.16 in 10.0 mi Calm Calm - N/A   Clear
4:56 AM 35.1 °F 32.2 °F 33.1 °F 92% 30.17 in 10.0 mi East 3.5 mph - N/A   Clear
5:56 AM 37.0 °F 33.3 °F 36.0 °F 96% 30.18 in 9.0 mi East 4.6 mph - N/A   Clear
6:56 AM 37.9 °F - 37.0 °F 97% 30.19 in 8.0 mi Calm Calm - N/A   Partly Cloudy
7:56 AM 44.1 °F 41.5 °F 41.0 °F 89% 30.20 in 10.0 mi ESE 4.6 mph - N/A   Mostly Cloudy
8:56 AM 48.9 °F - 43.0 °F 80% 30.22 in 10.0 mi SE 4.6 mph - N/A   Mostly Cloudy
9:56 AM 54.0 °F - 45.0 °F 72% 30.22 in 10.0 mi Calm Calm - N/A   Overcast
10:16 AM 55.4 °F - 46.4 °F 72% 30.18 in 10.0 mi Calm Calm - 0.00 in Rain Light Rain
10:40 AM 57.2 °F - 46.4 °F 67% 30.18 in 10.0 mi Calm Calm - 0.00 in   Overcast
10:56 AM 57.9 °F - 46.9 °F 67% 30.21 in 10.0 mi Calm Calm - 0.00 in   Overcast
11:14 AM 59.0 °F - 48.2 °F 67% 30.16 in 10.0 mi Calm Calm - 0.00 in Rain Light Rain
11:30 AM 60.8 °F - 48.2 °F 63% 30.15 in 10.0 mi SE 4.6 mph - 0.00 in   Overcast
11:56 AM 62.1 °F - 51.1 °F 67% 30.17 in 10.0 mi SSE 3.5 mph - 0.00 in   Overcast
12:56 PM 63.0 °F - 53.1 °F 70% 30.14 in 10.0 mi South 5.8 mph - N/A   Overcast
1:03 PM 62.6 °F - 53.6 °F 72% 30.11 in 8.0 mi SE 3.5 mph - 0.00 in Rain Light Rain
1:19 PM 62.6 °F - 53.6 °F 72% 30.11 in 10.0 mi Calm Calm - 0.00 in   Overcast
1:34 PM 60.8 °F - 55.4 °F 82% 30.11 in 6.0 mi SE 3.5 mph - 0.00 in Rain Light Rain
1:42 PM 60.8 °F - 55.4 °F 82% 30.11 in 10.0 mi SE 3.5 mph - 0.00 in   Overcast
1:56 PM 62.1 °F - 55.9 °F 80% 30.13 in 10.0 mi SSE 3.5 mph - 0.00 in   Overcast
2:56 PM 62.1 °F - 55.9 °F 80% 30.12 in 10.0 mi Calm Calm - N/A   Mostly Cloudy
3:56 PM 63.0 °F - 57.0 °F 81% 30.13 in 10.0 mi Calm Calm - 0.00 in   Overcast
4:56 PM 62.1 °F - 55.9 °F 80% 30.13 in 10.0 mi SSE 4.6 mph - N/A   Mostly Cloudy
5:56 PM 63.0 °F - 55.9 °F 78% 30.14 in 10.0 mi South 3.5 mph - N/A   Overcast
6:56 PM 62.1 °F - 57.0 °F 84% 30.14 in 10.0 mi Calm Calm - N/A   Mostly Cloudy
7:56 PM 62.1 °F - 59.0 °F 90% 30.15 in 7.0 mi South 3.5 mph - 0.01 in Rain Rain
8:56 PM 61.0 °F - 59.0 °F 93% 30.15 in 10.0 mi South 3.5 mph - 0.00 in   Overcast
9:56 PM 60.1 °F - 57.9 °F 93% 30.15 in 9.0 mi Calm Calm - N/A   Partly Cloudy
10:27 PM 60.8 °F - 59.0 °F 94% 30.13 in 9.0 mi Calm Calm - N/A   Overcast
10:56 PM 60.1 °F - 57.9 °F 93% 30.15 in 9.0 mi Calm Calm - N/A   Mostly Cloudy
11:25 PM 60.8 °F - 57.2 °F 88% 30.11 in 8.0 mi Calm Calm - N/A   Mostly Cloudy
11:56 PM 59.0 °F - 57.9 °F 96% 30.13 in 6.0 mi Calm Calm - N/A   Overcast